Location: Nashville
(36.1660°N, 86.7840°W)
Time: 13:25:14
(UTC-05:00)

UNISAT 6 - Visible Passes

Search period start: 16 May 2022 00:00
Search period end: 26 May 2022 00:00
Orbit: 606 x 685 km, 97.7° (Epoch: 15 May)

Date Brightness Start Highest point End Pass type
(mag) Time Alt. Az. Time Alt. Az. Time Alt. Az.
16 May ? 20:33:11 10° NW 20:35:17 13° WNW 20:37:21 10° W visible
19 May ? 05:06:52 10° E 05:08:23 12° ENE 05:09:55 10° NE visible
19 May ? 20:11:05 10° NNW 20:14:30 21° WNW 20:17:51 10° WSW visible
20 May ? 20:37:59 10° NW 20:39:24 11° WNW 20:40:49 10° W visible
